STARLINK-36729

Last updated on Wed Mar 25 2026 00:02:05 GMT+0000 (Coordinated Universal Time)

1 67905U 26036B 26083.50002314 -.01860272 00000+0 -54858-1 0 9996 2 67905 42.9992 162.1107 0001252 276.9442 11.1109 15.37651604 6025
UTC large
Height (km)
Speed (km/s)
/
Latitude / Longitude
Inclination (degrees)
Orbital Period (minutes)
Azimuth
Elevation
Range (km)
Doppler Factor

Next 0 passes for location: London (51.5072 / 0.1276)

Sorry there are no passes over London.